Cancun, Mexico

4:27 AM on August 18, 2017 (GMT +0000)
Cancun International

Weather History for MMUN - October, 2011

Change the Weather History Date:

Monday, October 3, 2011

  Actual Average Record
Temperature  
Mean Temperature 76 °F -  
Max Temperature 82 °F 86 °F 91 °F (1998)
Min Temperature 71 °F 72 °F 62 °F (2010)
Cooling Degree Days 12    
Growing Degree Days 26 (Base 50)    
Moisture  
Dew Point 71 °F    
Average Humidity 80    
Maximum Humidity 94    
Minimum Humidity 66    
Precipitation  
Precipitation 0.00 in - - ()
Sea Level Pressure  
Sea Level Pressure 29.98 in    
Wind  
Wind Speed 6 mph ()    
Max Wind Speed 15 mph    
Max Gust Speed -    
Visibility 6.4 miles    
Events      
Averages and records for this station are not official NWS values.
T = Trace of Precipitation, MM = Missing Value Source: Averaged Metar Reports

Daily Weather History Graph

Daily Weather History Graph

Search for Another Location

Airport or City:

Trip Planner

Search our weather history database for the weather conditions in past years. The results will help you decide how hot, cold, wet, or windy it might be!

Date:

Astronomy

Oct. 03, 2011 Rise Set
Actual Time 6:39 AM CDT 6:33 PM CDT
Civil Twilight 6:16 AM CDT 6:55 PM CDT
Nautical Twilight 5:51 AM CDT 7:21 PM CDT
Astronomical Twilight 5:25 AM CDT 7:47 PM CDT
Moon 12:58 PM CDT (10/3) No Moon Set
Length of Visible Light 12h 38m
Length of Day
11h 54m
Waxing Crescent, 45% of the Moon is Illuminated
Oct 3
Waxing Crescent
Oct 3
First Quarter
Oct 11
Full
Oct 19
Last Quarter
Oct 26
New

Hourly Weather History & Observations

Time (CDT) Temp. Heat Index Dew Point Humidity Pressure Visibility Wind Dir Wind Speed Gust Speed Precip Events Conditions
12:47 AM 77.0 °F - 68.0 °F 74% 29.97 in 7.0 mi NE 6.9 mph - N/A   Scattered Clouds
1:45 AM 77.0 °F - 68.0 °F 74% 29.96 in 7.0 mi NNE 3.5 mph - N/A   Scattered Clouds
2:46 AM 77.0 °F - 69.8 °F 78% 29.94 in 7.0 mi NNE 6.9 mph - N/A   Scattered Clouds
3:46 AM 75.2 °F - 68.0 °F 78% 29.96 in 7.0 mi NNE 5.8 mph - N/A   Scattered Clouds
4:47 AM 77.0 °F - 68.0 °F 74% 29.94 in 7.0 mi NE 6.9 mph - N/A   Scattered Clouds
5:43 AM 75.2 °F - 69.8 °F 83% 29.96 in 7.0 mi NNE 4.6 mph - N/A   Scattered Clouds
6:45 AM 73.4 °F - 69.8 °F 88% 29.98 in 7.0 mi Calm Calm - N/A   Mostly Cloudy
7:41 AM 71.6 °F - 69.8 °F 94% 29.99 in 7.0 mi Calm Calm - N/A   Mostly Cloudy
8:43 AM 78.8 °F - 71.6 °F 78% 30.00 in 7.0 mi NE 5.8 mph - N/A   Mostly Cloudy
9:41 AM 78.8 °F - 71.6 °F 78% 30.02 in 6.0 mi ESE 13.8 mph - N/A   Mostly Cloudy
10:40 AM 77.0 °F - 71.6 °F 83% 30.03 in 6.0 mi East 11.5 mph - N/A   Mostly Cloudy
11:46 AM 80.6 °F 84.6 °F 71.6 °F 74% 30.03 in 6.0 mi East 8.1 mph - N/A   Mostly Cloudy
12:40 PM 80.6 °F 84.6 °F 71.6 °F 74% 30.02 in 6.0 mi NNE 8.1 mph - N/A   Overcast
1:40 PM 80.6 °F 84.6 °F 71.6 °F 74% 29.99 in 6.0 mi NE 10.4 mph - N/A   Mostly Cloudy
2:45 PM 82.4 °F 87.2 °F 71.6 °F 70% 29.97 in 6.0 mi NE 15.0 mph - N/A   Mostly Cloudy
3:45 PM 80.6 °F 83.9 °F 69.8 °F 70% 29.96 in 6.0 mi NE 9.2 mph - N/A   Overcast
4:41 PM 82.4 °F 86.3 °F 69.8 °F 66% 29.95 in 6.0 mi NE 10.4 mph - N/A   Overcast
5:42 PM 78.8 °F - 69.8 °F 74% 29.96 in 6.0 mi NE 8.1 mph - N/A   Overcast
6:45 PM 77.0 °F - 71.6 °F 83% 29.97 in 6.0 mi East 8.1 mph - N/A   Mostly Cloudy
7:43 PM 75.2 °F - 71.6 °F 89% 29.98 in 6.0 mi ENE 6.9 mph - N/A   Mostly Cloudy
8:41 PM 75.2 °F - 71.6 °F 89% 30.00 in 6.0 mi Calm Calm - N/A   Mostly Cloudy
9:48 PM 75.2 °F - 73.4 °F 94% 29.99 in 6.0 mi NE 5.8 mph - N/A   Mostly Cloudy
10:48 PM 75.2 °F - 73.4 °F 94% 30.01 in 6.0 mi East 5.8 mph - N/A   Mostly Cloudy
11:46 PM 75.2 °F - 71.6 °F 89% 30.01 in 6.0 mi ENE 5.8 mph - N/A   Mostly Cloudy